User: anonymous   Login
Location: Cincinnati Observatory Center
(39.1389°N, 84.4225°W)
Time: 18:48:29
(UTC-04:00)
Language:

COSMOS 2428 - Orbit

View from above orbital plane
View from above orbital plane
View from above satellite
View from above satellite

Ground track
Ground track

The orbit data is extracted from the following two-line orbital elements,

1 31792U 07029A   17178.82779641 +.00000197 +00000-0 +13323-3 0  9990
2 31792 070.9174 029.7654 0011417 256.3854 103.5996 14.12278550515573
Epoch (UTC): 27 June 2017 19:52:01
Eccentricity: 0.0011417
inclination: 70.9174°
perigee height: 843 km
apogee height: 860 km
right ascension of ascending node: 29.7654°
argument of perigee: 256.3854°
revolutions per day: 14.12278550
mean anomaly at epoch: 103.5996°
orbit number at epoch: 51557

The dashed part of the orbit path shows where the satellite is in the earth's shadow,  

DLR